Torna al catalogo

STARLINK-34317

AttivoComunicazioniSSO
NORAD 64162·PAYLOAD·🇺🇸 United States

Lanciato May 27, 2025 da Vandenberg Space Force Base

Loading…

Prossimi Passaggi (prossime 24 ore)

TLE

AggiornatoSource: CelesTrak SupGP

Epoca: Sep 15, 2026, 03:09 UTC

1 64162C 25112S   26258.13173611  .00024076  00000+0  74730-3 0  2586
2 64162  97.2838 305.3038 0000834  84.2546  30.0727 15.33430172    13

Traccia STARLINK-34317 in tempo reale con AllMySat

Download on the App Store